Location: Roanoke
(37.2710°N, 79.9420°W)
Time: 02:57:29
(UTC-05:00)

Transit 2A - Pass Details

Date: 01 December 2019
Orbit: 602 x 957 km, 66.7° (Epoch: 14 December)

Event Time Altitude Azimuth Distance (km) Brightness Sun altitude
Rises 17:15:22 0° 348° (NNW) 2,861 8.8 -3.1°
Reaches altitude 10° 17:18:17 10° 9° (N) 1,971 7.8 -3.7°
Maximum altitude 17:21:14 17° 51° (NE) 1,572 7.1 -4.2°
Drops below altitude 10° 17:24:16 10° 93° (E) 2,039 7.7 -4.7°
Sets 17:27:20 0° 113° (ESE) 3,004 8.7 -5.3°
